sat.trackr.live / text

‹ back to catalog

EWS-G3 (GOES 14)

NORAD 35491 · 2009-033A

PAYLOAD ACTIVE UNKNOWN

§ Identity

Operator
Country
US
Launch date
2009-06-27
Launch site
AFETR
Launch vehicle
Mass (kg)
RCS (m²)
17.65

Purposes: comms, earth_obs

External: N2YO · Heavens-Above · Gunter

§ Orbital elements

Epoch: 2026-09-10T02:53:38.734944Z

Period
1,438.97 min
Inclination
1.9033°
Eccentricity
0.0002119
Mean motion
1.00071796 rev/d
Perigee alt
35,833.8 km
Apogee alt
35,851.7 km
Semi-major
42,220.9 km
B*
0.0000e+0
RAAN
81.8486°
Arg perigee
91.9679°
Mean anomaly
305.2953°
Rev number
744

§ Raw data

EWS-G3 (GOES 14)1 35491U 09033A   26253.12058721 -.00000173  00000+0  00000+0 0  99912 35491   1.9033  81.8486 0002119  91.9679 305.2953  1.00071796  7442

JSON: /api/v1/satellites/35491 · /tle

For live sub-satellite position, see the globe view (requires WebGL).

§ Visibility from observer

Set your observer location to see the next 7 days of passes ≥ 10°. The values pass through the URL so the page stays shareable.

No JS? Fill the form by hand. The geolocation button needs JavaScript.

§ Radio — SatNOGS DB

ModeDescriptionDownlinkUplink
BPSK CDA Telemetry 1.694 GHz

1 transmitter · refreshed weekly from db.satnogs.org